Location: Unspecified
(0.0000°N, 0.0000°E)
Time: 13:43:58
(UTC+01:00)

Tiangong - Visible Passes

Search period start: 08 May 2026 00:00
Search period end: 18 May 2026 00:00
Orbit: 374 x 381 km, 41.5° (Epoch: 8 May)

Date Brightness Start Highest point End Pass type
(mag) Time Alt. Az. Time Alt. Az. Time Alt. Az.
14 May -0.2 20:31:20 10° SW 20:32:46 25° SW 20:32:46 25° SW visible
15 May -1.4 19:29:28 10° SSW 19:32:17 31° SE 19:35:05 10° ENE visible
16 May 0.0 20:03:53 10° WSW 20:06:36 28° NW 20:09:18 10° NNE visible
